モーリー-アタール彗星

C/2021 X1 ( Maury-Attard )

English version
Home page
Updated on September 2, 2023

---------------------------------------------------------------------

・ プロフィール

発見日 2021年12月2日
発見光度 19.0等
発見者 Alain Maury and Georges Attard (Maury, Attard, Parrott (MAP) survey project)

・ 写真集

・ 軌道要素

Epoch 2023 Feb. 25.0 TT = JDT 2460000.5
T 2023 May 27.47671 TT                                  Rudenko
q   3.2336190            (2000.0)            P               Q
z  -0.0000647      Peri.  334.62842     +0.82777015     +0.54856626
 +/-0.0000007      Node    10.58498     +0.55811661     -0.78356968
e   1.0002093      Incl.  140.12127     -0.05746675     +0.29170811
>From 1039 observations 2021 Dec. 2-2023 July 4, mean residual 0".5.

・ 星図

・ 光度変化

        m1 = 6.5 + 5 logΔ + 10.0 log r

---------------------------------------------------------------------

軌道要素はM.P.E.C. 2023-N16に掲載されたものです。
星図はステラナビゲータ Ver.10 (アストロアーツ) で作成したものです。
光度グラフはComet for Windowsで作成したものです。

---------------------------------------------------------------------

Copyright(C) Seiichi Yoshida (comet@aerith.net). All rights reserved.